CZ-3C DEB, 40194

Orbit data source: Space-Track

CZ-3C DEB, 40194 is space debris in HEO originally from a launch on Fri, 24 Feb 2012 UTC launched from the Xichang Space Center, China (XSC). Debris objects in space refer to the collection of defunct objects orbiting the Earth. Examples of debris include non-operational satellites, rocket bodies, and fragments generated from explosions, collisions, or faulty payload assembly.

Loading next visibility...
Identifier
40194, 2012-008D
Orbit
HEO
Country
Flag of CNCN / PRC
Related business
Manufacturer
CALT
Mission
Spacecraft
Bus & Motor
Unknown
Mass
Unknown
Launch date (UTC)
2012-02-24 (14 years ago)
Launch vehicle
Unknown
Launch site
Xichang Space Center, China (XSC)
Object type
Payload
Rocket body
Debris
Shape & HBR
Unknown shape, 0.2 m
Radar Cross Section
Medium (>0.1 m² and <1 m²)

Expand to show TLE details & history
Last TLE update: 5 days ago

TLE from 5 days ago
0 CZ-3C DEB
1 40194U 12008D   26231.36178128 -.00000086  00000-0  00000-0 0  9994
2 40194  20.9446 328.6259 6430214  89.8331 338.2854  2.13004941 99254
Epoch: 2026-08-19T08:40Z
TLE epoch observation values (Epoch: 2026-08-19T08:40:57.902Z)
Latitude
-0.00001°
Longitude
-129.28775°
Altitude
8,580.586 km
Speed
6.138 km/s
True Right ascension
21h 54m 40s
True Declination
0° 00' 00"
Sunlit
Object was in full shadow at epoch
Visualization orbit readout
Latitude
Unknown
Longitude
Unknown
Altitude
Unknown
Speed
Unknown
Apparent Right ascension
Unknown
Apparent Declination
Unknown
Sunlit
N/A
Visualization observer readout
Local Sidereal Time
20:02:47
Azimuth
Unknown
Elevation
Unknown
Doppler factor
Unknown
Orbital elements
Apogee altitude
35,549.953 km
Perigee altitude
2,731.562 km
Semi-major axis
25,518.895 km
Eccentricity
0.64302
Inclination
20.9446°
RAAN
328.6259°
Arg. of periapsis
89.8331°
True anomaly
270.1164°
Mean anomaly
338.2854°
Eccentric anomaly
310.10657°
Mean motion
0.53242 °/min
Orbital period
676.16 mins
BSTAR
0
Loading maneuver chart data...
Computing Atmospheric mass density...
Loading historical data...
Loading historical data...
Loading historical data...
Loading historical data...
Loading historical data...
Loading historical data...
Loading historical data...

Documentation

Showing up to 5 results
|